sat.trackr.live / text

‹ back to catalog

STARLINK-11576 [DTC]

NORAD 62993 · 2025-031N

PAYLOAD ACTIVE UNKNOWN

§ Identity

Operator
Country
US
Launch date
2025-02-11
Launch site
AFETR
Launch vehicle
Mass (kg)
RCS (m²)

Purposes: comms

External: N2YO · Heavens-Above · Gunter

§ Orbital elements

Epoch: 2026-09-21T00:46:48.872640Z

Period
91.67 min
Inclination
42.9996°
Eccentricity
0.0001665
Mean motion
15.70909314 rev/d
Perigee alt
355.2 km
Apogee alt
357.4 km
Semi-major
6,734.4 km
B*
8.6535e-4
RAAN
264.0933°
Arg perigee
245.9856°
Mean anomaly
114.0837°
Rev number
9,345

§ Raw data

STARLINK-11576 [DTC]1 62993U 25031N   26264.03251010  .00112429  00000+0  86535-3 0  99902 62993  42.9996 264.0933 0001665 245.9856 114.0837 15.70909314 93458

JSON: /api/v1/satellites/62993 · /tle

For live sub-satellite position, see the globe view (requires WebGL).

§ Visibility from observer

Set your observer location to see the next 7 days of passes ≥ 10°. The values pass through the URL so the page stays shareable.

No JS? Fill the form by hand. The geolocation button needs JavaScript.